Total_Precipitation_Accumulation
1.19 1.17 1.12 1.17 1.07 0.99 1.05 1.11 1.12 1.14 1.03 0.89 0.86 0.88 0.97 0.91 0.92 1.05 1.34 1.77 2.30 2.73 2.92 2.86 2.63 2.50 2.53 2.52 2.64 2.84 3.04 3.15 2.92 2.75 2.50 2.34 2.51 2.63 2.32 2.25 2.27 2.29 2.46
1.24 1.31 1.25 1.18 1.11 1.02 1.05 1.22 1.17 1.19 1.16 1.09 0.95 0.96 0.99 0.95 0.93 0.96 1.09 1.44 1.79 2.17 2.64 2.99 2.83 2.58 2.38 2.33 2.34 2.51 2.78 2.84 2.59 2.52 2.46 2.39 2.62 2.76 2.45 2.29 2.20 2.09 2.31
1.11 1.19 1.20 1.13 1.12 1.13 1.13 1.18 1.22 1.28 1.19 1.11 1.09 1.05 1.04 0.98 0.90 0.92 0.89 1.04 1.15 1.46 1.90 2.36 2.68 2.70 2.57 2.48 2.43 2.54 2.74 2.66 2.42 2.46 2.56 2.52 2.50 2.59 2.56 2.40 2.21 2.09 2.22
1.18 1.17 1.20 1.18 1.22 1.25 1.23 1.26 1.33 1.33 1.28 1.27 1.24 1.22 1.08 1.04 0.96 0.92 0.87 0.89 0.95 0.95 1.17 1.47 1.88 2.28 2.53 2.65 2.81 2.98 2.84 2.57 2.34 2.33 2.45 2.31 2.22 2.33 2.44 2.41 2.16 1.98 1.90
1.26 1.38 1.41 1.41 1.37 1.39 1.38 1.33 1.36 1.28 1.28 1.30 1.24 1.26 1.21 1.16 1.06 0.88 0.92 0.93 0.93 0.87 0.92 0.89 1.05 1.33 1.73 2.22 2.82 3.09 2.71 2.48 2.32 2.16 2.13 2.07 2.10 2.20 2.23 2.08 1.93 1.77 1.72
1.49 1.68 1.77 1.67 1.63 1.62 1.61 1.55 1.60 1.49 1.38 1.41 1.30 1.28 1.24 1.15 1.15 1.06 1.00 0.97 1.02 0.97 0.90 0.80 0.78 0.74 0.97 1.47 2.20 2.67 2.62 2.48 2.29 2.18 2.06 2.01 2.10 2.21 2.16 2.02 1.91 1.88 1.85
1.81 1.95 1.88 1.96 1.98 1.84 1.84 1.90 1.94 1.91 1.73 1.60 1.64 1.52 1.27 1.08 1.12 1.05 0.99 1.03 1.08 1.16 1.16 1.03 0.89 0.80 0.79 0.96 1.46 2.05 2.42 2.43 2.44 2.29 2.19 2.15 2.10 2.11 2.11 2.05 2.01 1.97 1.97
2.04 2.09 2.16 2.24 2.27 2.27 2.20 2.09 2.21 2.36 2.10 1.88 1.97 2.24 1.87 1.51 1.14 0.90 0.96 0.98 1.06 1.29 1.34 1.15 0.96 0.88 0.87 0.98 0.97 1.28 1.71 2.11 2.34 2.37 2.31 2.22 2.17 2.20 2.24 2.11 1.98 1.96 1.98
2.26 2.30 2.36 2.41 2.42 2.27 2.26 2.36 2.49 2.83 2.65 2.28 2.08 2.33 2.18 1.87 1.57 1.12 0.98 0.98 1.06 1.23 1.35 1.37 1.25 1.18 1.08 1.10 1.09 0.92 1.10 1.54 1.98 2.33 2.44 2.41 2.26 2.45 2.68 2.45 2.09 1.91 1.79
2.22 2.34 2.35 2.33 2.30 2.24 2.30 2.36 2.41 2.83 3.05 2.75 2.40 1.99 1.78 1.73 1.83 1.55 1.12 1.03 1.10 1.10 1.23 1.32 1.27 1.33 1.33 1.33 1.31 1.05 0.97 1.21 1.58 2.10 2.50 2.83 2.64 2.45 2.50 2.59 2.39 2.04 1.78
2.08 2.11 2.11 2.22 2.24 2.27 2.34 2.50 2.63 2.89 2.92 2.91 2.72 2.49 2.26 1.93 1.59 1.66 1.60 1.30 1.22 1.11 1.20 1.33 1.38 1.47 1.50 1.53 1.66 1.39 1.08 0.99 1.19 1.67 2.26 2.81 2.97 2.73 2.50 2.48 2.43 2.26 1.95
2.05 1.98 1.92 2.01 2.14 2.29 2.34 2.43 2.60 2.85 2.96 3.04 2.95 2.67 2.56 2.39 2.09 1.97 1.71 1.55 1.52 1.28 1.24 1.28 1.31 1.44 1.60 1.69 1.66 1.77 1.44 1.04 0.93 1.21 1.60 2.13 2.78 3.01 2.85 2.77 2.68 2.60 2.38
1.77 1.83 1.88 1.97 2.10 2.19 2.26 2.38 2.52 2.58 2.70 2.95 2.96 2.78 2.56 2.36 2.34 2.21 2.09 1.76 1.57 1.36 1.33 1.32 1.28 1.34 1.36 1.63 1.78 1.86 1.53 1.18 0.91 0.91 1.09 1.35 1.88 2.48 2.78 2.81 2.81 2.96 2.96
1.65 1.61 1.66 1.74 1.96 2.15 2.22 2.32 2.33 2.31 2.37 2.56 2.57 2.64 2.60 2.33 2.28 2.17 2.17 2.26 1.97 1.72 1.54 1.33 1.21 1.27 1.31 1.49 1.79 1.88 1.46 1.28 1.04 0.89 0.92 1.12 1.30 1.51 1.87 2.39 2.73 2.96 3.17
1.43 1.39 1.43 1.48 1.60 1.82 2.06 2.21 2.17 2.10 2.06 2.22 2.29 2.39 2.52 2.54 2.44 2.33 2.30 2.39 2.37 2.11 1.87 1.60 1.33 1.20 1.29 1.40 1.78 1.70 1.48 1.35 1.24 1.04 0.94 1.01 1.05 1.16 1.26 1.56 1.89 2.09 2.31
1.25 1.21 1.22 1.31 1.47 1.60 1.78 2.00 2.09 2.03 2.02 2.10 2.20 2.32 2.46 2.59 2.63 2.41 2.36 2.35 2.24 2.19 2.04 1.66 1.37 1.26 1.33 1.30 1.65 1.64 1.59 1.58 1.37 1.20 1.11 1.08 1.12 1.10 1.09 1.20 1.31 1.36 1.34
1.08 1.08 1.23 1.29 1.37 1.47 1.67 1.93 2.10 2.11 2.03 2.04 2.01 2.09 2.26 2.36 2.60 2.57 2.47 2.36 2.25 2.12 2.01 1.80 1.55 1.35 1.40 1.44 1.52 1.60 1.60 1.48 1.29 1.26 1.13 1.09 1.09 1.11 1.09 1.12 1.24 1.17 1.08
0.81 0.94 1.07 1.11 1.16 1.22 1.43 1.71 1.92 1.98 1.95 1.85 1.81 1.91 2.11 2.28 2.50 2.63 2.59 2.43 2.35 2.22 2.12 2.08 1.87 1.61 1.48 1.53 1.64 1.72 1.67 1.59 1.50 1.50 1.36 1.22 1.16 1.12 1.12 1.10 1.14 1.20 1.16
0.82 0.93 1.02 1.09 1.13 1.18 1.23 1.36 1.54 1.69 1.69 1.62 1.63 1.66 1.69 1.88 2.16 2.35 2.37 2.40 2.45 2.43 2.42 2.26 2.04 1.90 1.72 1.60 1.71 1.75 1.72 1.76 1.62 1.65 1.61 1.49 1.42 1.36 1.25 1.16 1.13 1.14 1.18
0.79 0.88 0.93 1.01 1.10 1.15 1.17 1.20 1.23 1.30 1.34 1.42 1.49 1.49 1.52 1.57 1.77 1.95 2.04 2.24 2.49 2.54 2.59 2.51 2.22 2.04 1.91 1.76 1.82 1.92 1.98 1.96 1.83 1.66 1.66 1.57 1.58 1.52 1.38 1.20 1.12 1.09 1.13
0.72 0.80 0.84 0.85 0.91 1.02 1.13 1.17 1.06 1.04 1.14 1.26 1.27 1.22 1.24 1.35 1.50 1.61 1.64 1.99 2.35 2.56 2.57 2.52 2.35 2.21 1.96 1.83 1.68 1.69 1.87 2.11 2.12 2.05 1.94 1.66 1.56 1.45 1.39 1.37 1.26 1.15 1.13
0.73 0.77 0.74 0.75 0.83 0.85 1.04 1.05 0.90 0.89 0.97 1.08 1.18 1.15 1.03 1.03 1.09 1.22 1.29 1.43 1.69 1.94 2.27 2.48 2.40 2.16 1.91 1.80 1.77 1.77 1.79 1.92 2.09 2.02 2.05 2.01 1.92 1.83 1.71 1.59 1.61 1.50 1.37
0.68 0.69 0.68 0.67 0.70 0.82 0.87 0.74 0.76 0.79 0.88 0.96 1.04 1.10 1.01 0.90 0.99 1.05 1.18 1.26 1.22 1.27 1.57 1.97 2.12 2.04 2.08 1.97 1.92 1.82 1.78 1.84 1.90 1.91 2.10 2.10 2.05 2.03 1.94 1.93 2.03 1.87 1.67
0.69 0.69 0.71 0.69 0.68 0.76 0.76 0.64 0.70 0.73 0.77 0.84 0.97 1.07 1.12 1.04 1.05 1.16 1.17 1.20 1.12 1.05 1.27 1.28 1.47 1.81 2.01 2.10 2.04 2.08 2.21 2.15 1.99 1.89 1.95 1.97 1.83 1.84 1.85 1.87 2.01 1.95 1.81
0.66 0.70 0.75 0.75 0.68 0.67 0.74 0.65 0.68 0.71 0.75 0.80 0.83 0.92 1.01 0.99 1.17 1.28 1.23 1.36 1.34 1.20 1.33 1.40 1.45 1.52 1.69 1.89 1.98 1.98 2.01 2.06 2.02 1.93 1.79 1.68 1.59 1.58 1.63 1.65 1.68 1.78 1.77
0.45 0.56 0.58 0.60 0.64 0.64 0.84 0.77 0.77 0.73 0.78 0.87 0.91 0.88 1.05 1.08 1.22 1.22 1.13 1.35 1.38 1.29 1.22 1.25 1.23 1.22 1.17 1.33 1.59 1.70 1.89 1.96 1.91 1.81 1.59 1.48 1.44 1.47 1.47 1.33 1.23 1.26 1.28